Terminal Aerodrome Forecast
Issued by NWS

Home | Current Version | Previous Version | Text Only | Print | Product List | Glossary On
Versions: 1 2 3 4 5 6 7 8 9 10 11 12 13 14 15 16 17 18 19 20
541
FTUS43 KLSX 292356 AAA
TAFCPS
TAF AMD
KCPS 292356Z 3000/3024 VRB03KT P6SM VCTS BKN040CB
      TEMPO 3000/3001 6SM -TSRA
     FM300200 32005KT P6SM FEW040 SCT250
      TEMPO 3008/3012 5SM BR=

USA.gov is the U.S. government's official web portal to all federal, state and local government web resources and services.